Findlay, OH

2:39 AM EDT on August 23, 2017 (GMT -0400)
Findlay

Weather History for KFDY - February, 2013

Change the Weather History Date:

Wednesday, February 27, 2013

  Actual Average Record
Temperature  
Mean Temperature 34 °F -  
Max Temperature 39 °F 39 °F 64 °F (1976)
Min Temperature 30 °F 24 °F -11 °F (1963)
Degree Days  
Heating Degree Days 30    
Moisture  
Dew Point 32 °F    
Average Humidity 91    
Maximum Humidity 100    
Minimum Humidity 87    
Precipitation  
Precipitation 0.15 in - - ()
Sea Level Pressure  
Sea Level Pressure 29.57 in    
Wind  
Wind Speed 11 mph (SW)    
Max Wind Speed 17 mph    
Max Gust Speed 26 mph    
Visibility 4 miles    
Events Rain , Snow    
Averages and records for this station are not official NWS values.
T = Trace of Precipitation, MM = Missing Value Source: NWS Daily Summary

Daily Weather History Graph

Daily Weather History Graph

Search for Another Location

Airport or City:

Trip Planner

Search our weather history database for the weather conditions in past years. The results will help you decide how hot, cold, wet, or windy it might be!

Date:

Astronomy

Feb. 27, 2013 Rise Set
Actual Time 7:11 AM EST 6:23 PM EST
Civil Twilight 6:43 AM EST 6:51 PM EST
Nautical Twilight 6:12 AM EST 7:23 PM EST
Astronomical Twilight 5:40 AM EST 7:55 PM EST
Moon 8:45 PM EST (2/27) 7:45 AM EST (2/27)
Length of Visible Light 12h 07m
Length of Day
11h 12m
Waning Gibbous, 96% of the Moon is Illuminated
Feb 27
Waning Gibbous
Mar 4
Last Quarter
Mar 11
New
Mar 19
First Quarter
Mar 27
Full

Hourly Weather History & Observations

Time (EST) Temp. Windchill Dew Point Humidity Pressure Visibility Wind Dir Wind Speed Gust Speed Precip Events Conditions
12:53 AM 39.9 °F 33.4 °F 37.9 °F 93% 29.44 in 5.0 mi SSW 10.4 mph - 0.00 in Rain Light Rain
1:53 AM 39.9 °F 35.1 °F 37.9 °F 93% 29.45 in 5.0 mi WSW 6.9 mph - 0.02 in Rain Light Rain
2:33 AM 39.2 °F 32.5 °F 37.4 °F 93% 29.45 in 4.0 mi WSW 10.4 mph - 0.04 in Rain Rain
3:14 AM 37.4 °F 29.8 °F 37.4 °F 100% 29.45 in 4.0 mi WSW 11.5 mph - 0.01 in Rain Light Rain
3:23 AM 37.4 °F 28.5 °F 35.6 °F 93% 29.45 in 6.0 mi West 15.0 mph - 0.02 in Rain Light Rain
3:53 AM 37.9 °F 28.9 °F 36.0 °F 93% 29.46 in 9.0 mi WSW 16.1 mph - 0.02 in Rain Light Rain
4:53 AM 37.9 °F 30.9 °F 36.0 °F 93% 29.47 in 10.0 mi WSW 10.4 mph - 0.00 in   Overcast
5:08 AM 37.4 °F 30.3 °F 35.6 °F 93% 29.47 in 10.0 mi WSW 10.4 mph - N/A   Overcast
5:48 AM 37.4 °F 32.8 °F 35.6 °F 93% 29.48 in 3.0 mi WSW 5.8 mph - N/A   Overcast
5:53 AM 37.0 °F 32.4 °F 36.0 °F 96% 29.49 in 3.0 mi WSW 5.8 mph - N/A   Overcast
6:12 AM 37.4 °F 32.8 °F 35.6 °F 93% 29.48 in 3.0 mi SW 5.8 mph - N/A   Overcast
6:24 AM 37.4 °F 33.8 °F 35.6 °F 93% 29.49 in 2.5 mi SW 4.6 mph - N/A   Overcast
6:30 AM 37.4 °F 33.8 °F 35.6 °F 93% 29.49 in 3.0 mi SW 4.6 mph - N/A   Overcast
6:53 AM 37.0 °F 32.4 °F 36.0 °F 96% 29.50 in 4.0 mi SSW 5.8 mph - N/A   Overcast
7:12 AM 37.4 °F 30.8 °F 35.6 °F 93% 29.50 in 5.0 mi SSW 9.2 mph - N/A   Overcast
7:53 AM 39.0 °F 30.3 °F 36.0 °F 89% 29.53 in 7.0 mi SSW 16.1 mph - N/A   Overcast
8:53 AM 39.0 °F 31.0 °F 36.0 °F 89% 29.55 in 7.0 mi SSW 13.8 mph - 0.01 in Rain Light Rain
10:04 AM 35.6 °F 25.5 °F 33.8 °F 93% 29.56 in 7.0 mi WSW 17.3 mph 20.7 mph 0.00 in Rain Light Rain
10:26 AM 35.6 °F 26.6 °F 32.0 °F 87% 29.57 in 6.0 mi WSW 13.8 mph 23.0 mph 0.01 in Snow Light Snow
10:53 AM 34.0 °F 26.6 °F 33.1 °F 96% 29.58 in 3.0 mi WSW 9.2 mph - 0.02 in Snow Light Snow
11:53 AM 35.1 °F 26.9 °F 33.1 °F 92% 29.58 in 6.0 mi SSW 11.5 mph - 0.01 in   Overcast
12:33 PM 35.6 °F 25.5 °F 33.8 °F 93% 29.57 in 5.0 mi SW 17.3 mph - 0.00 in Rain Light Rain
12:49 PM 37.4 °F 28.2 °F 33.8 °F 87% 29.57 in 5.0 mi SW 16.1 mph 26.5 mph 0.00 in Rain Light Rain
12:53 PM 37.0 °F 27.7 °F 34.0 °F 89% 29.57 in 5.0 mi SW 16.1 mph 26.5 mph 0.00 in Rain Light Rain
1:06 PM 35.6 °F 27.1 °F 33.8 °F 93% 29.57 in 4.0 mi SW 12.7 mph - 0.01 in Rain Light Rain
1:53 PM 36.0 °F 27.1 °F 33.1 °F 89% 29.58 in 9.0 mi SW 13.8 mph - 0.01 in   Overcast
2:50 PM 35.6 °F 27.1 °F 32.0 °F 87% 29.57 in 4.0 mi SW 12.7 mph - 0.00 in Snow Light Snow
2:53 PM 35.1 °F 25.5 °F 32.0 °F 89% 29.58 in 5.0 mi SW 15.0 mph - 0.00 in Snow Light Snow
3:18 PM 35.6 °F 28.6 °F 32.0 °F 87% 29.58 in 2.5 mi SW 9.2 mph - 0.00 in Snow Light Snow
3:28 PM 35.6 °F 27.5 °F 32.0 °F 87% 29.58 in 3.0 mi SW 11.5 mph - 0.01 in Snow Light Snow
3:53 PM 35.1 °F 27.9 °F 32.0 °F 89% 29.59 in 5.0 mi SW 9.2 mph - 0.01 in Snow Light Snow
4:48 PM 33.8 °F 28.6 °F 32.0 °F 93% 29.59 in 2.5 mi WSW 5.8 mph - 0.00 in Snow Light Snow
4:53 PM 34.0 °F 29.8 °F 32.0 °F 92% 29.60 in 2.0 mi SW 4.6 mph - 0.01 in Snow Light Snow
5:00 PM 33.8 °F 27.0 °F 32.0 °F 93% 29.59 in 1.2 mi SW 8.1 mph - 0.00 in Snow Light Snow
5:17 PM 33.8 °F 25.3 °F 30.2 °F 87% 29.60 in 1.0 mi SW 11.5 mph - 0.02 in Snow Light Snow
5:36 PM 33.8 °F 25.8 °F 30.2 °F 87% 29.60 in 1.5 mi SW 10.4 mph - 0.02 in Snow Light Snow
5:39 PM 33.8 °F 24.8 °F 30.2 °F 87% 29.60 in 2.0 mi SW 12.7 mph - 0.02 in Snow Light Snow
5:53 PM 33.1 °F 24.9 °F 30.9 °F 92% 29.62 in 2.5 mi SW 10.4 mph - 0.02 in Snow Light Snow
6:03 PM 33.8 °F 25.3 °F 30.2 °F 87% 29.61 in 1.8 mi SW 11.5 mph - 0.00 in Snow Light Snow
6:10 PM 33.8 °F 24.8 °F 30.2 °F 87% 29.61 in 1.2 mi SW 12.7 mph - 0.00 in Snow Light Snow
6:41 PM 33.8 °F 27.0 °F 30.2 °F 87% 29.61 in 1.5 mi SW 8.1 mph - 0.01 in Snow Light Snow
6:53 PM 33.1 °F 25.5 °F 30.9 °F 92% 29.62 in 1.2 mi SW 9.2 mph - 0.01 in Snow Light Snow
7:21 PM 33.8 °F 25.8 °F 30.2 °F 87% 29.62 in 2.5 mi SW 10.4 mph - 0.00 in Snow Light Snow
7:27 PM 33.8 °F 25.8 °F 30.2 °F 87% 29.62 in 1.8 mi SW 10.4 mph - 0.01 in Snow Light Snow
7:43 PM 33.8 °F 23.9 °F 30.2 °F 87% 29.62 in 1.5 mi SW 15.0 mph - 0.01 in Snow Light Snow
7:53 PM 33.1 °F 24.4 °F 30.9 °F 92% 29.62 in 1.8 mi SW 11.5 mph - 0.01 in Snow Light Snow
8:05 PM 33.8 °F 24.8 °F 30.2 °F 87% 29.61 in 2.0 mi SW 12.7 mph - 0.00 in Snow Light Snow
8:12 PM 33.8 °F 25.3 °F 30.2 °F 87% 29.61 in 2.0 mi SW 11.5 mph - 0.00 in Snow Light Snow
8:23 PM 33.8 °F 26.4 °F 30.2 °F 87% 29.62 in 1.8 mi SW 9.2 mph - 0.00 in Snow Light Snow
8:42 PM 33.8 °F 25.3 °F 30.2 °F 87% 29.61 in 2.0 mi SW 11.5 mph - 0.00 in Snow Light Snow
8:53 PM 33.1 °F 24.4 °F 30.9 °F 92% 29.62 in 2.0 mi SW 11.5 mph - 0.00 in Snow Light Snow
8:58 PM 33.8 °F 24.8 °F 30.2 °F 87% 29.61 in 3.0 mi SW 12.7 mph - 0.00 in Snow Light Snow
9:10 PM 32.0 °F 22.5 °F 30.2 °F 93% 29.61 in 3.0 mi SW 12.7 mph - 0.00 in Snow Light Snow
9:24 PM 32.0 °F 22.5 °F 30.2 °F 93% 29.61 in 3.0 mi SW 12.7 mph - 0.00 in Snow Light Snow
9:31 PM 32.0 °F 22.5 °F 30.2 °F 93% 29.61 in 2.5 mi SW 12.7 mph - 0.00 in Snow Light Snow
9:50 PM 32.0 °F 23.6 °F 30.2 °F 93% 29.61 in 3.0 mi SW 10.4 mph - 0.00 in Snow Light Snow
9:53 PM 32.0 °F 22.5 °F 30.0 °F 92% 29.62 in 3.0 mi SW 12.7 mph - 0.00 in Snow Light Snow
10:00 PM 32.0 °F 22.1 °F 30.2 °F 93% 29.61 in 5.0 mi SW 13.8 mph - 0.00 in Snow Light Snow
10:53 PM 32.0 °F 22.1 °F 30.0 °F 92% 29.62 in 2.5 mi SW 13.8 mph - 0.00 in Snow Light Snow
11:01 PM 32.0 °F 23.0 °F 30.2 °F 93% 29.60 in 4.0 mi SW 11.5 mph - 0.00 in Snow Light Snow
11:17 PM 32.0 °F 23.0 °F 30.2 °F 93% 29.60 in 2.0 mi WSW 11.5 mph - 0.00 in Snow Light Snow
11:26 PM 32.0 °F 24.8 °F 30.2 °F 93% 29.60 in 1.8 mi WSW 8.1 mph - 0.00 in Snow Light Snow
11:39 PM 32.0 °F 22.5 °F 28.4 °F 87% 29.60 in 2.5 mi WSW 12.7 mph 18.4 mph 0.00 in Snow Light Snow
11:48 PM 30.2 °F 19.8 °F 28.4 °F 93% 29.59 in 4.0 mi WSW 13.8 mph - 0.00 in Snow Light Snow
11:53 PM 30.9 °F 20.2 °F 28.9 °F 92% 29.61 in 5.0 mi WSW 15.0 mph - 0.00 in   Overcast